When you browse on this site, cookies collect data to enhance your experience and personalize the content and advertising you see.
Visit our Privacy Policy to learn more. By continuing to use the site, you agree to this use of cookies and data.
  • In Lithuania
  • List of Countries
  • For 7 days
  • Water Temperature
  • Weather Map
  • Weather Widgets
  • user-avatar
    Login

    Hourly Weather Salyan

    Today, 4 June, Thursday

    Time Temperature Precipitation Wind Pressure Humidity
    00:00 +21°C° 0.5 mm 1 mps 651 mmHg 74%
    01:00 +21°C° 0.5 mm 1 mps 650 mmHg 75%
    02:00 +21°C° 0.5 mm 1 mps 650 mmHg 75%
    03:00 +21°C° 0.1 mm 1 mps 650 mmHg 75%
    04:00 +21°C° 0.1 mm 1 mps 650 mmHg 75%
    05:00 +21°C° 0 mm 1 mps 650 mmHg 73%
    06:00 +23°C° 0 mm 1 mps 650 mmHg 66%
    07:00 +25°C° 0 mm 1 mps 651 mmHg 58%
    08:00 +25°C° 0 mm 0 mps 652 mmHg 51%
    09:00 +27°C° 0.3 mm 2 mps 652 mmHg 49%
    10:00 +28°C° 0.3 mm 3 mps 652 mmHg 48%
    11:00 +27°C° 0 mm 3 mps 652 mmHg 52%
    12:00 +25°C° 1.9 mm 3 mps 651 mmHg 61%
    13:00 +22°C° 1.9 mm 3 mps 650 mmHg 71%
    14:00 +20°C° 1.9 mm 2 mps 649 mmHg 80%
    15:00 +20°C° 2.1 mm 2 mps 649 mmHg 84%
    16:00 +20°C° 2.1 mm 1 mps 649 mmHg 87%
    17:00 +18°C° 2.1 mm 0 mps 649 mmHg 90%
    18:00 +18°C° 0.4 mm 0 mps 649 mmHg 90%
    19:00 +20°C° 0.4 mm 1 mps 649 mmHg 89%
    20:00 +20°C° 0.4 mm 1 mps 650 mmHg 89%
    21:00 +20°C° 0.2 mm 1 mps 650 mmHg 89%
    22:00 +20°C° 0.2 mm 1 mps 650 mmHg 89%
    23:00 +20°C° 0.2 mm 1 mps 650 mmHg 89%

    Tomorrow, 5 June, Friday

    Time Temperature Precipitation Wind Pressure Humidity
    00:00 +20°C° 0.3 mm 1 mps 649 mmHg 89%
    01:00 +18°C° 0.3 mm 0 mps 649 mmHg 89%
    02:00 +17°C° 0.3 mm 0 mps 648 mmHg 88%
    03:00 +17°C° 0.4 mm 0 mps 648 mmHg 91%
    04:00 +17°C° 0.4 mm 0 mps 648 mmHg 93%
    05:00 +16°C° 0.4 mm 0 mps 648 mmHg 95%
    06:00 +17°C° 0.6 mm 0 mps 648 mmHg 94%
    07:00 +17°C° 0.6 mm 0 mps 648 mmHg 93%
    08:00 +17°C° 0.6 mm 0 mps 649 mmHg 92%
    09:00 +17°C° 1.1 mm 0 mps 649 mmHg 92%
    10:00 +17°C° 1.1 mm 0 mps 649 mmHg 92%
    11:00 +17°C° 1.1 mm 0 mps 649 mmHg 93%
    12:00 +17°C° 0.6 mm 0 mps 649 mmHg 92%
    13:00 +17°C° 0.6 mm 0 mps 649 mmHg 91%
    14:00 +19°C° 0.6 mm 1 mps 649 mmHg 91%
    15:00 +17°C° 0.1 mm 0 mps 649 mmHg 91%
    16:00 +18°C° 0.1 mm 0 mps 648 mmHg 90%
    17:00 +18°C° 0.1 mm 0 mps 648 mmHg 90%
    18:00 +17°C° 0 mm 0 mps 648 mmHg 89%
    19:00 +17°C° 0 mm 0 mps 648 mmHg 89%
    20:00 +17°C° 0 mm 0 mps 649 mmHg 88%
    21:00 +17°C° 0.4 mm 0 mps 649 mmHg 88%
    22:00 +17°C° 0.4 mm 0 mps 649 mmHg 87%
    23:00 +17°C° 0.4 mm 0 mps 649 mmHg 87%

    Day after tomorrow, 6 June, Saturday

    Time Temperature Precipitation Wind Pressure Humidity
    00:00 +17°C° 0.3 mm 0 mps 649 mmHg 87%
    01:00 +19°C° 0.3 mm 1 mps 648 mmHg 87%
    02:00 +19°C° 0.3 mm 1 mps 648 mmHg 86%
    03:00 +17°C° 0.1 mm 0 mps 648 mmHg 86%
    04:00 +17°C° 0.1 mm 0 mps 648 mmHg 85%
    05:00 +17°C° 0.1 mm 0 mps 648 mmHg 85%
    06:00 +19°C° 0 mm 0 mps 649 mmHg 78%
    07:00 +22°C° 0 mm 1 mps 650 mmHg 71%
    08:00 +24°C° 0 mm 1 mps 650 mmHg 65%
    09:00 +25°C° 0 mm 1 mps 651 mmHg 60%
    10:00 +27°C° 0 mm 2 mps 651 mmHg 55%
    11:00 +28°C° 0 mm 2 mps 651 mmHg 51%
    12:00 +28°C° 0.6 mm 2 mps 651 mmHg 53%
    13:00 +27°C° 0.6 mm 2 mps 650 mmHg 56%
    14:00 +27°C° 0.6 mm 3 mps 649 mmHg 59%
    15:00 +27°C° 0.8 mm 2 mps 649 mmHg 59%
    16:00 +27°C° 0.8 mm 2 mps 649 mmHg 60%
    17:00 +26°C° 0.8 mm 1 mps 648 mmHg 60%
    18:00 +25°C° 0.1 mm 1 mps 649 mmHg 65%
    19:00 +24°C° 0.1 mm 1 mps 649 mmHg 69%
    20:00 +22°C° 0.1 mm 1 mps 649 mmHg 74%
    21:00 +22°C° 0 mm 1 mps 649 mmHg 75%
    22:00 +22°C° 0 mm 1 mps 649 mmHg 76%
    23:00 +22°C° 0 mm 1 mps 649 mmHg 78%

    7 June, Sunday

    Time Temperature Precipitation Wind Pressure Humidity
    00:00 +21°C° 0 mm 1 mps 649 mmHg 78%
    01:00 +21°C° 0 mm 1 mps 648 mmHg 78%
    02:00 +21°C° 0 mm 1 mps 648 mmHg 79%
    03:00 +21°C° 0 mm 1 mps 648 mmHg 78%
    04:00 +21°C° 0 mm 1 mps 648 mmHg 78%
    05:00 +21°C° 0 mm 1 mps 648 mmHg 77%
    06:00 +23°C° 0 mm 1 mps 649 mmHg 69%
    07:00 +25°C° 0 mm 1 mps 650 mmHg 60%
    08:00 +28°C° 0 mm 1 mps 651 mmHg 52%
    09:00 +29°C° 0 mm 1 mps 651 mmHg 48%
    10:00 +30°C° 0 mm 2 mps 651 mmHg 44%
    11:00 +31°C° 0 mm 3 mps 651 mmHg 39%
    12:00 +31°C° 0.2 mm 3 mps 651 mmHg 40%
    13:00 +31°C° 0.2 mm 3 mps 650 mmHg 40%
    14:00 +31°C° 0.2 mm 3 mps 649 mmHg 41%
    15:00 +31°C° 0.1 mm 3 mps 649 mmHg 41%
    16:00 +31°C° 0.1 mm 2 mps 649 mmHg 42%
    17:00 +30°C° 0.1 mm 2 mps 648 mmHg 42%
    18:00 +29°C° 0 mm 1 mps 648 mmHg 46%
    19:00 +27°C° 0 mm 1 mps 648 mmHg 49%
    20:00 +25°C° 0 mm 1 mps 648 mmHg 53%
    21:00 +25°C° 0 mm 1 mps 648 mmHg 55%
    22:00 +24°C° 0 mm 1 mps 648 mmHg 56%
    23:00 +24°C° 0 mm 1 mps 648 mmHg 58%

    8 June, Monday

    Time Temperature Precipitation Wind Pressure Humidity
    00:00 +23°C° 0 mm 1 mps 648 mmHg 59%
    01:00 +23°C° 0 mm 1 mps 648 mmHg 60%
    02:00 +23°C° 0 mm 1 mps 648 mmHg 61%
    03:00 +23°C° 0 mm 1 mps 648 mmHg 62%
    04:00 +21°C° 0 mm 2 mps 648 mmHg 62%
    05:00 +21°C° 0 mm 2 mps 648 mmHg 63%
    06:00 +25°C° 0 mm 1 mps 649 mmHg 56%
    07:00 +28°C° 0 mm 1 mps 650 mmHg 48%
    08:00 +30°C° 0 mm 1 mps 651 mmHg 41%
    09:00 +31°C° 0 mm 1 mps 651 mmHg 37%
    10:00 +34°C° 0 mm 2 mps 651 mmHg 34%
    11:00 +35°C° 0 mm 3 mps 651 mmHg 30%
    12:00 +34°C° 0 mm 3 mps 650 mmHg 31%
    13:00 +34°C° 0 mm 3 mps 650 mmHg 32%
    14:00 +34°C° 0 mm 3 mps 649 mmHg 33%
    15:00 +34°C° 0 mm 3 mps 649 mmHg 34%
    16:00 +32°C° 0 mm 2 mps 649 mmHg 34%
    17:00 +32°C° 0 mm 1 mps 648 mmHg 35%
    18:00 +30°C° 0 mm 1 mps 648 mmHg 39%
    19:00 +29°C° 0 mm 1 mps 648 mmHg 43%
    20:00 +27°C° 0 mm 1 mps 648 mmHg 47%
    21:00 +26°C° 0 mm 1 mps 648 mmHg 49%
    22:00 +26°C° 0 mm 1 mps 648 mmHg 50%
    23:00 +25°C° 0 mm 2 mps 648 mmHg 52%

    9 June, Tuesday

    Time Temperature Precipitation Wind Pressure Humidity
    00:00 +25°C° 0 mm 2 mps 648 mmHg 53%
    01:00 +24°C° 0 mm 2 mps 648 mmHg 54%
    02:00 +24°C° 0 mm 2 mps 647 mmHg 55%
    03:00 +24°C° 0 mm 2 mps 647 mmHg 56%
    04:00 +24°C° 0 mm 2 mps 647 mmHg 56%
    05:00 +24°C° 0 mm 2 mps 647 mmHg 57%
    06:00 +26°C° 0 mm 1 mps 648 mmHg 50%
    07:00 +29°C° 0 mm 1 mps 649 mmHg 44%
    08:00 +32°C° 0 mm 1 mps 650 mmHg 37%
    09:00 +33°C° 0 mm 1 mps 650 mmHg 34%
    10:00 +35°C° 0 mm 2 mps 651 mmHg 31%
    11:00 +36°C° 0 mm 3 mps 651 mmHg 28%
    12:00 +36°C° 0 mm 3 mps 650 mmHg 28%
    13:00 +36°C° 0 mm 3 mps 650 mmHg 29%
    14:00 +35°C° 0 mm 3 mps 649 mmHg 29%
    15:00 +35°C° 0 mm 2 mps 649 mmHg 31%
    16:00 +34°C° 0 mm 2 mps 649 mmHg 32%
    17:00 +33°C° 0 mm 1 mps 649 mmHg 33%
    18:00 +31°C° 0 mm 1 mps 648 mmHg 36%
    19:00 +30°C° 0 mm 1 mps 648 mmHg 39%
    20:00 +28°C° 0 mm 1 mps 648 mmHg 43%
    21:00 +27°C° 0 mm 1 mps 648 mmHg 44%
    22:00 +27°C° 0 mm 1 mps 648 mmHg 46%
    23:00 +26°C° 0 mm 2 mps 648 mmHg 48%
    Show more